Wind_Speed
26 25 25 23 22 21 21 21 21 20 20 19 19 17 17 16 15 16 17 17 15 12 12 12 12 13 12 12 13 11 10 11 12 11 10 10 9 8 6 5 5 4
28 26 25 25 24 22 22 22 21 21 20 20 18 18 18 17 16 17 18 18 16 15 15 15 15 15 14 13 14 14 13 13 13 12 13 12 10 9 7 6 6 7
29 28 27 25 25 24 22 22 21 21 21 20 19 19 20 19 19 19 20 19 18 18 18 17 16 16 16 15 15 15 14 14 14 13 13 13 12 11 10 9 9 8
31 29 28 26 25 25 24 23 22 22 22 21 20 20 21 21 22 22 23 22 21 20 20 19 18 18 18 17 16 16 15 15 14 14 14 14 14 13 12 10 9 8
32 30 29 27 25 26 26 24 24 23 23 23 23 22 23 24 25 25 26 25 24 23 22 21 20 19 19 19 18 18 17 16 16 15 14 14 13 12 13 11 10 10
32 31 30 29 27 27 28 26 25 25 25 25 25 25 25 26 27 27 28 28 27 25 23 22 22 21 21 21 21 19 19 18 17 17 16 15 13 12 12 11 11 12
32 32 31 30 29 29 29 27 27 28 28 27 27 28 28 28 29 29 30 29 27 25 24 24 24 24 23 24 23 22 21 20 18 18 18 17 15 14 12 11 11 10
32 32 32 32 31 29 28 28 29 30 30 29 30 31 31 31 32 31 30 29 28 26 26 26 27 26 25 24 25 24 23 22 19 18 18 18 17 16 15 13 12 11
32 32 33 33 32 30 28 29 31 32 32 32 32 32 32 33 33 32 31 30 29 28 28 28 28 28 27 25 25 25 25 23 21 19 18 17 17 17 16 14 13 13
33 32 33 33 31 30 31 31 31 32 34 35 34 33 34 34 34 32 32 32 31 30 30 30 29 29 28 26 25 25 25 24 22 20 19 19 19 18 17 16 15 14
34 33 33 33 32 32 34 34 32 32 34 36 36 35 35 35 34 33 32 33 33 31 31 31 31 30 29 27 26 25 25 25 23 21 21 20 20 19 18 17 17 15
36 35 34 33 34 34 35 36 34 33 34 37 38 37 35 34 34 34 33 34 34 33 33 33 32 32 31 29 27 26 26 25 23 22 22 21 20 19 18 18 17 16
36 37 36 35 37 37 36 37 37 35 35 37 38 37 36 34 34 34 34 34 34 34 34 34 33 32 32 31 29 27 27 25 23 22 22 22 21 20 19 18 17 17
36 37 38 38 39 38 38 38 38 38 37 37 37 37 37 35 34 34 35 34 34 35 35 34 34 33 32 33 31 28 27 25 23 23 22 22 21 20 19 18 17 17
36 36 37 39 39 39 39 40 40 40 39 37 36 36 36 34 32 32 35 35 33 34 35 34 34 33 33 34 33 30 27 24 23 23 23 22 21 20 19 18 18 18
36 35 35 37 39 40 41 41 41 40 39 37 36 36 33 32 30 30 35 37 34 33 34 33 33 33 34 35 34 31 28 24 23 24 23 22 21 20 20 19 19 18
36 35 35 36 39 40 40 41 39 37 36 35 34 33 31 30 29 28 32 35 33 32 32 32 31 31 33 35 34 32 28 25 23 23 23 23 21 20 19 20 20 19
37 36 35 36 37 38 38 37 35 32 30 30 29 28 28 28 28 27 27 28 28 28 28 29 29 30 32 34 33 32 29 25 23 22 23 22 21 20 19 20 20 20
36 36 34 34 35 36 34 32 31 28 27 27 26 25 24 24 24 24 24 24 24 24 25 25 26 27 30 31 31 31 29 26 23 21 21 21 20 20 20 20 20 19
34 35 33 33 33 31 29 28 29 27 25 24 23 20 20 20 19 20 22 22 22 22 23 22 22 23 26 28 29 29 28 28 25 21 19 19 19 20 20 19 19 19
34 34 32 31 30 27 26 29 29 26 22 21 18 16 16 16 16 17 19 21 20 20 21 20 19 20 24 26 27 27 27 29 29 24 19 17 18 18 17 17 17 17
38 35 30 28 27 25 25 28 27 22 20 19 17 15 14 15 16 15 16 18 19 18 19 19 18 19 22 25 26 26 26 29 30 27 21 19 19 19 17 16 16 16
37 35 30 27 26 24 23 24 22 20 19 20 20 17 15 15 16 15 16 17 17 17 17 16 16 17 20 23 25 25 27 29 30 27 24 23 22 20 18 17 16 16
32 33 31 29 26 24 22 20 20 20 19 19 19 18 17 16 15 16 17 17 17 17 17 17 16 17 19 22 25 26 27 29 29 26 25 24 21 18 17 17 17 17
28 30 30 28 24 23 21 19 18 17 16 17 16 15 15 14 14 14 16 17 17 17 18 18 17 16 17 21 24 25 26 27 27 24 22 20 17 15 16 17 17 17
29 28 27 24 21 20 20 19 17 16 15 13 12 12 11 11 12 12 13 13 13 14 15 17 17 16 17 19 21 22 24 24 23 21 18 16 15 15 16 16 16 18
Wind_Direction
196 195 192 191 190 191 190 185 183 183 182 182 183 184 184 180 177 180 180 179 183 186 188 191 192 192 193 194 192 186 180 182 184 187 186 184 192 202 206 213 221 240
194 193 190 189 189 190 190 188 185 185 185 184 183 184 183 180 179 183 184 183 182 187 192 194 196 196 194 195 194 192 192 190 191 192 186 183 191 199 205 216 223 228
193 192 189 188 188 189 189 188 186 187 186 185 184 183 182 182 182 185 187 188 188 191 195 195 196 197 196 197 198 196 198 198 198 200 194 188 194 200 204 216 229 232
193 191 189 188 188 189 189 188 187 187 186 187 188 185 185 185 186 190 193 194 195 195 196 195 195 196 196 198 200 199 200 203 204 209 210 202 197 197 201 212 226 235
192 191 189 188 188 189 188 187 187 187 187 189 191 189 190 190 190 194 197 197 197 197 197 195 194 197 197 197 201 202 202 205 206 211 218 216 209 203 204 212 217 218
192 190 188 188 189 190 188 187 187 188 190 192 191 191 194 194 194 197 198 198 198 197 196 194 193 196 199 199 201 203 204 206 207 211 219 221 220 216 213 217 218 214
192 190 188 188 191 192 189 188 190 191 193 194 193 194 196 198 199 200 200 199 197 196 194 193 194 196 199 200 200 203 206 208 210 213 218 220 223 223 221 225 228 225
191 190 189 189 191 191 188 189 193 195 195 195 196 197 199 201 202 202 201 199 197 196 194 194 195 196 198 199 200 202 206 208 212 215 215 215 218 221 222 227 233 238
191 190 190 192 191 189 188 192 195 197 198 198 198 200 202 204 205 204 201 199 198 197 196 195 196 196 198 198 199 203 206 208 212 216 217 215 216 219 219 222 226 231
191 190 192 192 190 187 191 196 198 198 200 201 201 203 205 207 207 204 201 200 199 198 196 195 195 196 197 198 200 203 205 206 208 214 219 220 220 220 219 218 221 224
191 193 194 192 190 191 194 197 198 198 202 204 204 206 207 208 207 205 202 201 199 199 197 196 195 196 197 198 200 202 203 204 207 211 216 219 219 219 217 215 216 218
193 195 195 192 192 195 196 197 199 199 201 204 206 207 208 207 207 205 204 203 201 199 198 196 195 196 197 197 198 200 202 204 207 212 216 218 218 218 217 216 215 215
195 196 194 193 195 197 198 199 200 200 202 204 206 207 207 207 207 207 206 204 202 200 198 196 195 195 197 197 197 199 202 204 207 212 216 218 219 220 219 218 216 215
195 195 193 194 196 198 199 201 202 203 205 206 206 207 207 207 208 208 206 204 202 201 199 197 196 195 196 196 197 199 201 204 207 211 215 217 218 219 218 217 216 215
194 194 195 196 196 198 200 202 204 206 206 206 207 208 209 209 208 207 204 202 202 201 199 199 198 197 197 196 196 198 200 202 207 211 213 216 216 216 215 215 214 213
192 194 195 196 197 198 201 203 205 206 207 207 209 210 210 209 207 205 204 203 201 200 199 198 198 198 198 198 198 198 198 200 206 211 213 215 215 213 213 215 215 215
191 193 194 196 198 200 203 205 206 207 207 208 209 211 211 210 207 204 203 202 200 197 196 196 198 200 201 201 200 200 199 199 205 210 212 215 215 211 212 215 216 218
191 191 193 195 198 201 204 206 208 208 209 211 211 211 210 208 206 204 201 200 199 196 195 197 200 202 203 202 201 201 200 200 205 209 211 213 214 214 215 216 218 221
189 188 190 194 198 201 204 205 205 206 209 209 208 206 204 201 201 202 200 199 201 200 199 201 202 203 205 202 201 203 202 199 204 210 210 211 213 214 216 217 219 221
185 185 187 191 194 197 199 197 198 202 204 202 199 198 198 197 198 203 206 206 206 205 203 203 202 204 206 202 200 204 205 203 205 209 210 211 213 214 215 217 220 224
175 179 184 187 189 191 192 194 198 202 201 196 193 191 194 196 198 203 208 209 207 206 204 205 205 206 205 201 201 206 208 209 211 212 213 216 215 210 210 217 223 226
170 173 174 177 180 184 190 196 201 204 202 199 195 192 194 198 198 199 200 201 204 206 206 206 209 210 205 202 204 208 211 215 216 215 216 219 217 215 218 225 228 227
169 170 168 170 175 179 186 194 198 199 202 202 198 196 194 190 188 191 196 197 200 204 206 207 210 213 210 206 205 206 210 215 216 215 217 221 223 226 230 229 229 231
166 170 171 173 176 180 183 188 193 197 201 202 201 201 200 195 193 196 196 193 194 199 205 209 213 217 215 210 206 206 209 215 216 214 217 223 226 226 226 226 231 239
164 170 173 174 178 184 189 192 195 198 201 201 200 200 199 198 200 198 191 189 194 201 205 210 218 223 217 211 209 208 209 214 216 214 215 220 220 215 218 224 233 239
168 170 171 173 176 182 188 190 188 187 187 187 187 192 194 194 194 191 186 188 196 200 201 206 215 220 216 211 211 212 213 213 213 210 208 209 210 214 220 225 233 240
Height
779 781 784 786 788 790 792 794 796 798 800 801 802 804 806 807 809 810 811 812 814 815 816 818 819 821 822 823 825 826 827 827 828 828 829 830 831 832 833 833 833 834
776 779 781 783 786 788 790 792 794 796 798 799 800 802 803 805 806 808 808 809 811 812 813 815 817 819 821 822 823 824 825 826 826 826 826 827 829 830 831 832 832 833
773 775 778 781 783 785 788 790 792 794 795 797 798 799 800 802 803 804 805 806 807 809 810 812 815 817 819 820 822 823 824 825 826 826 825 825 825 827 828 830 831 831
769 772 775 778 780 782 785 787 789 791 793 794 795 796 797 798 800 801 802 803 804 806 808 810 813 815 817 819 820 822 823 824 826 827 827 825 824 824 825 827 828 829
766 769 772 775 777 779 782 784 786 788 789 791 792 793 794 795 796 796 798 799 801 803 805 808 811 813 815 817 818 820 821 822 823 825 827 827 826 825 825 825 826 827
762 765 768 772 774 776 778 780 783 784 786 787 788 790 791 791 792 793 794 796 798 801 804 806 809 811 812 814 816 818 819 820 821 823 824 826 827 826 825 825 825 825
759 762 765 768 770 772 774 777 779 780 782 784 784 786 787 787 789 790 791 794 797 799 802 804 806 808 809 811 813 815 817 819 820 821 822 824 825 826 825 825 825 825
755 759 761 763 765 768 771 774 776 776 778 779 780 781 782 783 785 786 789 792 795 797 799 801 802 805 807 808 810 812 814 816 818 819 820 821 823 824 824 823 824 824
752 755 757 759 761 765 768 770 771 772 774 775 776 778 779 780 781 784 787 789 791 794 795 797 799 802 804 806 808 810 811 813 815 816 818 819 820 821 821 821 822 822
748 751 753 755 758 761 763 765 766 768 770 771 773 774 775 776 778 781 783 785 788 790 792 794 796 799 801 803 805 807 809 811 812 814 815 816 817 818 819 819 819 820
743 746 748 751 754 756 757 759 762 764 766 767 768 769 770 772 775 777 779 781 783 786 788 790 792 795 798 800 802 804 806 808 809 811 812 814 815 816 816 816 817 818
738 740 743 747 749 751 752 754 756 759 761 762 763 765 767 769 771 774 775 777 779 782 784 786 789 791 794 797 799 801 803 805 806 808 810 811 812 813 814 814 814 815
732 735 738 742 744 746 748 750 751 754 755 756 758 760 763 765 768 770 772 774 776 778 781 783 785 787 790 793 795 797 799 802 804 806 807 809 810 811 812 812 813 813
727 731 733 736 738 741 744 746 747 749 750 752 754 756 758 761 763 765 768 771 773 775 778 780 782 784 786 789 791 793 796 799 801 803 805 806 807 808 809 810 810 811
722 726 729 732 734 737 739 741 743 744 746 748 751 753 755 758 760 762 764 767 770 772 774 777 779 780 782 784 787 790 793 796 799 801 802 804 805 806 807 807 808 808
718 722 725 728 730 732 734 736 738 741 743 745 748 750 753 756 758 759 761 764 766 768 772 774 776 777 779 781 784 787 790 793 796 798 800 801 802 803 804 805 806 806
713 717 720 723 726 728 731 733 736 738 741 744 746 749 752 754 755 757 759 761 764 766 769 771 772 774 776 778 781 784 787 790 793 795 797 798 800 801 802 803 803 805
708 712 715 719 723 725 728 731 735 738 741 744 746 748 750 751 754 756 758 761 763 765 767 768 770 772 774 776 779 782 785 788 790 792 794 796 797 798 800 800 801 803
704 708 712 717 720 723 727 730 733 737 739 742 744 746 748 750 753 755 758 761 763 764 766 767 769 770 772 775 778 781 784 786 788 790 791 793 795 796 797 798 799 800
700 705 710 714 718 722 725 728 731 734 737 739 742 744 746 749 752 754 757 760 761 763 765 766 768 769 771 774 777 780 782 784 786 788 789 791 792 793 794 795 797 799
697 703 708 712 716 720 723 726 730 732 735 738 740 743 745 747 750 753 755 758 760 762 764 765 767 768 769 773 776 779 781 783 784 786 788 789 790 791 792 794 795 797
695 700 706 710 715 719 722 726 729 731 734 736 739 742 743 746 749 751 753 756 758 761 763 764 766 767 769 771 774 777 779 780 782 784 786 787 788 789 791 792 794 796
694 698 703 708 712 716 720 724 727 730 732 734 737 739 741 743 746 748 751 754 756 759 761 764 765 766 768 770 772 774 776 777 779 782 783 784 785 787 789 791 792 794
692 696 700 706 710 714 718 721 724 728 730 733 735 737 739 741 744 746 749 751 754 757 759 762 764 764 766 768 769 771 773 775 777 779 781 782 784 786 788 788 789 791
692 696 700 705 709 713 717 721 724 728 731 733 735 736 737 739 741 744 747 749 752 754 756 759 761 762 764 766 767 770 772 773 776 777 779 781 783 784 785 786 787 788
692 697 702 705 710 714 718 722 724 727 729 732 734 736 738 738 739 742 745 747 750 752 754 757 759 760 762 764 766 768 770 772 774 775 777 780 781 782 783 784 785 785